Location: Unspecified
(39.0670°S, 0.0000°E)
Time: 13:58:34
(UTC+00:00)

Envisat - Pass Details

Date: 26 June 2019
Orbit: 764 x 766 km, 98.1° (Epoch: 18 July)

Event Time Altitude Azimuth Distance (km) Brightness Sun altitude
Rises 06:41:19 0° 4° (N) 3,220 6.6 -7.5°
Reaches altitude 10° 06:43:39 10° 360° (N) 2,303 5.8 -7.1°
Maximum altitude 06:48:39 58° 280° (W) 901 3.1 -6.2°
Drops below altitude 10° 06:53:44 10° 201° (SSW) 2,335 5.1 -5.3°
Sets 06:56:06 0° 197° (SSW) 3,269 5.9 -4.9°
